TimeCDT,TemperatureF,Dew PointF,Humidity,Sea Level PressureIn,VisibilityMPH,Wind Direction,Wind SpeedMPH,Gust SpeedMPH,PrecipitationIn,Events,Conditions,WindDirDegrees,DateUTC
12:53 AM,48.0,42.1,80,30.20,10.0,NNE,4.6,-,N/A,,Clear,30,2013-04-21 05:53:00
1:53 AM,50.0,41.0,71,30.19,10.0,NE,3.5,-,N/A,,Clear,40,2013-04-21 06:53:00
2:53 AM,48.0,41.0,77,30.18,10.0,NE,4.6,-,N/A,,Clear,40,2013-04-21 07:53:00
3:53 AM,46.0,39.9,79,30.19,10.0,NNE,3.5,-,N/A,,Clear,20,2013-04-21 08:53:00
4:53 AM,45.0,41.0,86,30.19,10.0,NNE,3.5,-,N/A,,Clear,30,2013-04-21 09:53:00
5:53 AM,44.1,39.9,85,30.19,10.0,North,3.5,-,N/A,,Clear,360,2013-04-21 10:53:00
6:53 AM,46.9,41.0,80,30.19,10.0,NNE,5.8,-,N/A,,Clear,30,2013-04-21 11:53:00
7:53 AM,53.1,43.0,69,30.20,10.0,NNE,5.8,-,N/A,,Clear,30,2013-04-21 12:53:00
8:53 AM,60.1,44.1,55,30.21,10.0,NE,5.8,-,N/A,,Clear,50,2013-04-21 13:53:00
9:53 AM,64.9,42.1,43,30.22,10.0,ENE,10.4,-,N/A,,Clear,60,2013-04-21 14:53:00
10:53 AM,68.0,39.0,35,30.22,10.0,East,11.5,18.4,N/A,,Clear,90,2013-04-21 15:53:00
11:53 AM,70.0,42.1,36,30.22,10.0,NE,10.4,16.1,N/A,,Clear,50,2013-04-21 16:53:00
12:53 PM,70.0,43.0,38,30.20,10.0,NNE,8.1,-,N/A,,Clear,20,2013-04-21 17:53:00
1:53 PM,72.0,43.0,35,30.19,10.0,NE,8.1,-,N/A,,Clear,40,2013-04-21 18:53:00
2:53 PM,73.9,44.1,34,30.15,10.0,Variable,6.9,-,N/A,,Clear,0,2013-04-21 19:53:00
3:53 PM,73.0,50.0,44,30.13,10.0,SE,8.1,-,N/A,,Clear,130,2013-04-21 20:53:00
4:53 PM,71.1,52.0,51,30.12,10.0,SSE,8.1,-,N/A,,Clear,160,2013-04-21 21:53:00
5:53 PM,70.0,51.1,51,30.13,10.0,SSE,8.1,-,N/A,,Clear,150,2013-04-21 22:53:00
6:53 PM,66.0,51.1,59,30.14,10.0,SSE,4.6,-,N/A,,Clear,160,2013-04-21 23:53:00
7:53 PM,60.1,53.1,78,30.14,10.0,Calm,Calm,-,N/A,,Clear,0,2013-04-22 00:53:00
8:53 PM,57.0,53.1,87,30.15,10.0,Calm,Calm,-,N/A,,Clear,0,2013-04-22 01:53:00
9:53 PM,55.0,52.0,89,30.16,10.0,Calm,Calm,-,N/A,,Clear,0,2013-04-22 02:53:00
10:53 PM,54.0,51.1,90,30.16,10.0,Calm,Calm,-,N/A,,Clear,0,2013-04-22 03:53:00
11:53 PM,53.1,50.0,89,30.15,5.0,Calm,Calm,-,N/A,,Clear,0,2013-04-22 04:53:00
11:59 PM,53.6,51.8,94,30.14,0.8,Calm,Calm,-,N/A,,Clear,0,2013-04-22 04:59:00